Location: *
(49.9853°N, 3.5569°E)
Time: 11:02:22
(UTC+00:00)

CZ-4C R/B - Pass Details

Date: 22 September 2019
Orbit: 653 x 1349 km, 63.4° (Epoch: 22 October)

Event Time Altitude Azimuth Distance (km) Brightness Sun altitude
Rises 19:10:13 0° 296° (WNW) 3,449 7.2 -14.4°
Reaches altitude 10° 19:13:01 10° 310° (NW) 2,622 5.9 -14.8°
Maximum altitude 19:18:06 25° 5° (N) 1,927 4.2 -15.6°
Drops below altitude 10° 19:23:54 10° 59° (ENE) 3,036 4.7 -16.4°
Enters shadow 19:24:40 - 63° (ENE) 3,261 4.9 -16.5°
